STARLINK-36740, 67741

Orbit data source: Space-Track

STARLINK-36740, 67741 is a payload satellite owned by SpaceX/Seattle (US) in SSO that was launched on Wed, 11 Feb 2026 UTC via an FALCON 9 launch vehicle from the Air Force Western Test Range (AFWTR). Payload-class satellites include a variety of spacecraft equipped with specific instruments for various scientific and technological missions. These include communications satellites like Starlink; space stations such as the ISS; scientific satellites like the Hubble; Earth observation satellites from companies like Planet Labs, Umbra, and HawkEye 360; GPS; miniature CubeSats for education and research; and military/defense satellites.

Loading next visibility...
Identifier
67741, 2026-026W
Orbit
SSO
Country
Flag of USUS
Related business
Manufacturer
SpaceX/Seattle
Mission
Operational Commercial Communications
Bus & Motor
STARLINK V2MO, Unknown motor
Mass
575 kg wet, ~530 kg dry
Launch date (UTC)
2026-02-11 (3 months ago)
Launch vehicle
FALCON 9
Launch site
Air Force Western Test Range (AFWTR)
Object type
Payload
Rocket body
Debris
Shape & HBR
Box + 2 Pan, 17.7 m
Radar Cross Section
36.964 m²

Expand to show TLE details & history
Last TLE update: 10 hours ago

TLE from 10 hours ago
0 STARLINK-36740
1 67741U 26026W   26130.10975970  .00006107  00000-0  19136-3 0  9998
2 67741  97.2850 183.9205 0000726  98.5403 261.5922 15.33438627 13542
Epoch: 2026-05-10T02:38Z
TLE epoch observation values (Epoch: 2026-05-10T02:38:03.238Z)
Latitude
-0°
Longitude
-83.51055°
Altitude
468.747 km
Speed
7.632 km/s
True Right ascension
12h 15m 40s
True Declination
0° 00' 00"
Sunlit
Object was in full shadow at epoch
Visualization orbit readout
Latitude
Unknown
Longitude
Unknown
Altitude
Unknown
Speed
Unknown
Apparent Right ascension
Unknown
Apparent Declination
Unknown
Sunlit
N/A
Visualization observer readout
Local Sidereal Time
20:35:25
Azimuth
Unknown
Elevation
Unknown
Doppler factor
Unknown
Orbital elements
Apogee altitude
463.002 km
Perigee altitude
462.008 km
Semi-major axis
6,840.642 km
Eccentricity
0.00007
Inclination
97.285°
RAAN
183.9205°
Arg. of periapsis
98.5403°
True anomaly
261.58397°
Mean anomaly
261.5922°
Eccentric anomaly
261.58809°
Mean motion
3.83617 °/min
Orbital period
93.84 mins
BSTAR
0.00019136
Loading maneuver chart data...
Computing Atmospheric mass density...
Loading historical data...
Loading historical data...
Loading historical data...
Loading historical data...
Loading historical data...
Loading historical data...
Loading historical data...

Documentation

Showing up to 5 results
|